• In Moldova, Republic
  • List of Countries
  • For 7 days
  • Water Temperature
  • Satellite Maps
  • Weather Map
  • Weather Widgets
  • user-avatar
    Login

    Hourly Weather Shaki

    Today, 21 May, Monday

    Time Temperature Precipitation Wind Pressure Humidity
    00:00 +20°C° 0 mm 2 mps 735 mmHg 49%
    01:00 +20°C° 0 mm 2 mps 735 mmHg 50%
    02:00 +20°C° 0 mm 2 mps 735 mmHg 51%
    03:00 +19°C° 0 mm 2 mps 734 mmHg 55%
    04:00 +20°C° 0 mm 2 mps 735 mmHg 55%
    05:00 +21°C° 0 mm 2 mps 735 mmHg 55%
    06:00 +21°C° 0 mm 2 mps 735 mmHg 55%
    07:00 +24°C° 0 mm 2 mps 735 mmHg 50%
    08:00 +25°C° 0 mm 2 mps 735 mmHg 45%
    09:00 +27°C° 0 mm 2 mps 735 mmHg 41%
    10:00 +28°C° 0 mm 2 mps 735 mmHg 40%
    11:00 +28°C° 0 mm 2 mps 735 mmHg 39%
    12:00 +29°C° 0 mm 1 mps 735 mmHg 38%
    13:00 +29°C° 0 mm 2 mps 735 mmHg 38%
    14:00 +29°C° 0 mm 2 mps 734 mmHg 38%
    15:00 +29°C° 0 mm 2 mps 734 mmHg 39%
    16:00 +28°C° 0 mm 1 mps 735 mmHg 42%
    17:00 +28°C° 0 mm 1 mps 735 mmHg 44%
    18:00 +27°C° 0 mm 1 mps 735 mmHg 47%
    19:00 +26°C° 0 mm 1 mps 735 mmHg 48%
    20:00 +25°C° 0 mm 2 mps 735 mmHg 50%
    21:00 +23°C° 0 mm 2 mps 735 mmHg 51%
    22:00 +23°C° 0 mm 2 mps 736 mmHg 51%
    23:00 +23°C° 0 mm 2 mps 736 mmHg 51%

    Tomorrow, 22 May, Tuesday

    Time Temperature Precipitation Wind Pressure Humidity
    00:00 +21°C° 0 mm 2 mps 736 mmHg 50%
    01:00 +21°C° 0 mm 2 mps 736 mmHg 51%
    02:00 +20°C° 0 mm 2 mps 736 mmHg 51%
    03:00 +20°C° 0 mm 2 mps 736 mmHg 52%
    04:00 +21°C° 0 mm 2 mps 737 mmHg 52%
    05:00 +21°C° 0 mm 2 mps 737 mmHg 52%
    06:00 +23°C° 0 mm 1 mps 737 mmHg 52%
    07:00 +24°C° 0 mm 2 mps 738 mmHg 48%
    08:00 +26°C° 0 mm 2 mps 738 mmHg 43%
    09:00 +27°C° 0 mm 2 mps 738 mmHg 39%
    10:00 +28°C° 0 mm 2 mps 738 mmHg 36%
    11:00 +29°C° 0 mm 3 mps 738 mmHg 34%
    12:00 +30°C° 0 mm 3 mps 738 mmHg 32%
    13:00 +31°C° 0 mm 3 mps 738 mmHg 30%
    14:00 +32°C° 0 mm 4 mps 737 mmHg 29%
    15:00 +33°C° 0 mm 4 mps 737 mmHg 27%
    16:00 +32°C° 0 mm 4 mps 737 mmHg 29%
    17:00 +30°C° 0 mm 4 mps 737 mmHg 31%
    18:00 +29°C° 0 mm 4 mps 737 mmHg 33%
    19:00 +27°C° 0 mm 3 mps 737 mmHg 34%
    20:00 +25°C° 0 mm 3 mps 738 mmHg 35%
    21:00 +24°C° 0 mm 3 mps 738 mmHg 36%
    22:00 +22°C° 0 mm 3 mps 738 mmHg 36%
    23:00 +23°C° 0 mm 2 mps 738 mmHg 37%

    Day after tomorrow, 23 May, Wednesday

    Time Temperature Precipitation Wind Pressure Humidity
    00:00 +21°C° 0 mm 2 mps 738 mmHg 37%
    01:00 +21°C° 0 mm 2 mps 738 mmHg 37%
    02:00 +20°C° 0 mm 2 mps 738 mmHg 37%
    03:00 +20°C° 0 mm 2 mps 738 mmHg 37%
    04:00 +21°C° 0 mm 2 mps 738 mmHg 36%
    05:00 +21°C° 0 mm 2 mps 739 mmHg 36%
    06:00 +23°C° 0 mm 1 mps 739 mmHg 36%
    07:00 +25°C° 0 mm 1 mps 739 mmHg 31%
    08:00 +27°C° 0 mm 1 mps 739 mmHg 27%
    09:00 +28°C° 0 mm 2 mps 739 mmHg 22%
    10:00 +29°C° 0 mm 2 mps 739 mmHg 22%
    11:00 +31°C° 0 mm 2 mps 739 mmHg 21%
    12:00 +32°C° 0 mm 2 mps 738 mmHg 20%
    13:00 +33°C° 0 mm 3 mps 738 mmHg 20%
    14:00 +33°C° 0 mm 4 mps 738 mmHg 20%
    15:00 +34°C° 0 mm 4 mps 737 mmHg 20%
    16:00 +33°C° 0 mm 4 mps 737 mmHg 23%
    17:00 +32°C° 0 mm 4 mps 737 mmHg 26%
    18:00 +30°C° 0 mm 3 mps 736 mmHg 28%
    19:00 +28°C° 0 mm 3 mps 737 mmHg 31%
    20:00 +26°C° 0 mm 3 mps 737 mmHg 33%
    21:00 +24°C° 0 mm 3 mps 737 mmHg 35%
    22:00 +22°C° 0 mm 3 mps 737 mmHg 34%
    23:00 +22°C° 0 mm 3 mps 737 mmHg 33%

    24 May, Thursday

    Time Temperature Precipitation Wind Pressure Humidity
    00:00 +21°C° 0 mm 3 mps 737 mmHg 33%
    01:00 +21°C° 0 mm 3 mps 737 mmHg 30%
    02:00 +20°C° 0 mm 2 mps 736 mmHg 27%
    03:00 +20°C° 0 mm 2 mps 736 mmHg 24%
    04:00 +20°C° 0 mm 2 mps 736 mmHg 24%
    05:00 +21°C° 0 mm 2 mps 736 mmHg 24%
    06:00 +21°C° 0 mm 2 mps 736 mmHg 24%
    07:00 +25°C° 0 mm 2 mps 736 mmHg 21%
    08:00 +27°C° 0 mm 2 mps 736 mmHg 18%
    09:00 +29°C° 0 mm 2 mps 735 mmHg 15%
    10:00 +30°C° 0 mm 2 mps 735 mmHg 15%
    11:00 +30°C° 0 mm 2 mps 735 mmHg 16%
    12:00 +31°C° 0 mm 2 mps 734 mmHg 16%
    13:00 +33°C° 0 mm 3 mps 734 mmHg 17%
    14:00 +33°C° 0 mm 3 mps 733 mmHg 18%
    15:00 +33°C° 0 mm 3 mps 733 mmHg 19%
    16:00 +31°C° 0 mm 3 mps 733 mmHg 22%
    17:00 +30°C° 0 mm 3 mps 732 mmHg 25%
    18:00 +29°C° 0 mm 3 mps 732 mmHg 28%
    19:00 +27°C° 0 mm 3 mps 732 mmHg 28%
    20:00 +26°C° 0 mm 3 mps 733 mmHg 28%
    21:00 +24°C° 0 mm 3 mps 733 mmHg 28%
    22:00 +22°C° 0 mm 3 mps 733 mmHg 29%
    23:00 +23°C° 0 mm 2 mps 733 mmHg 31%

    25 May, Friday

    Time Temperature Precipitation Wind Pressure Humidity
    00:00 +21°C° 0 mm 2 mps 732 mmHg 32%
    01:00 +21°C° 0 mm 2 mps 732 mmHg 33%
    02:00 +20°C° 0 mm 2 mps 732 mmHg 35%
    03:00 +20°C° 0 mm 2 mps 732 mmHg 36%
    04:00 +21°C° 0 mm 2 mps 732 mmHg 37%
    05:00 +21°C° 0 mm 2 mps 732 mmHg 38%
    06:00 +23°C° 0 mm 1 mps 732 mmHg 39%
    07:00 +25°C° 0 mm 2 mps 731 mmHg 35%
    08:00 +27°C° 0 mm 2 mps 731 mmHg 30%
    09:00 +29°C° 0 mm 2 mps 731 mmHg 26%
    10:00 +29°C° 0 mm 2 mps 731 mmHg 25%
    11:00 +30°C° 0 mm 2 mps 731 mmHg 24%
    12:00 +31°C° 0 mm 2 mps 731 mmHg 24%
    13:00 +32°C° 0 mm 2 mps 730 mmHg 23%
    14:00 +32°C° 0 mm 2 mps 730 mmHg 22%
    15:00 +32°C° 0 mm 2 mps 730 mmHg 22%
    16:00 +31°C° 0 mm 2 mps 729 mmHg 24%
    17:00 +31°C° 0 mm 2 mps 729 mmHg 27%
    18:00 +30°C° 0 mm 1 mps 729 mmHg 29%
    19:00 +28°C° 0 mm 2 mps 730 mmHg 30%
    20:00 +26°C° 0 mm 2 mps 730 mmHg 31%
    21:00 +24°C° 0 mm 2 mps 730 mmHg 33%
    22:00 +24°C° 0 mm 2 mps 730 mmHg 33%
    23:00 +23°C° 0 mm 2 mps 730 mmHg 34%

    26 May, Saturday

    Time Temperature Precipitation Wind Pressure Humidity
    00:00 +21°C° 0 mm 2 mps 730 mmHg 35%
    01:00 +21°C° 0 mm 2 mps 730 mmHg 35%
    02:00 +21°C° 0 mm 2 mps 730 mmHg 36%
    03:00 +21°C° 0 mm 2 mps 730 mmHg 37%
    04:00 +21°C° 0 mm 2 mps 730 mmHg 38%
    05:00 +23°C° 0 mm 2 mps 730 mmHg 39%
    06:00 +24°C° 0 mm 2 mps 730 mmHg 40%
    07:00 +26°C° 0 mm 2 mps 730 mmHg 36%
    08:00 +28°C° 0 mm 2 mps 731 mmHg 31%
    09:00 +29°C° 0 mm 3 mps 731 mmHg 27%
    10:00 +30°C° 0 mm 2 mps 731 mmHg 26%
    11:00 +31°C° 0 mm 2 mps 731 mmHg 25%
    12:00 +32°C° 0 mm 2 mps 731 mmHg 24%
    13:00 +32°C° 0 mm 2 mps 731 mmHg 25%
    14:00 +32°C° 0 mm 2 mps 732 mmHg 26%
    15:00 +33°C° 0 mm 3 mps 732 mmHg 27%
    16:00 +30°C° 0.1 mm 3 mps 732 mmHg 32%
    17:00 +29°C° 0.1 mm 3 mps 733 mmHg 38%
    18:00 +27°C° 0.1 mm 3 mps 733 mmHg 44%
    19:00 +26°C° 0.1 mm 3 mps 734 mmHg 46%
    20:00 +25°C° 0.1 mm 3 mps 734 mmHg 48%
    21:00 +24°C° 0.1 mm 3 mps 735 mmHg 51%
    22:00 +22°C° 0.3 mm 4 mps 735 mmHg 57%
    23:00 +21°C° 0.3 mm 4 mps 735 mmHg 63%
    Show more